Location: Poughquag
(41.6090°N, 73.6820°W)
Time: 05:22:10
(UTC-04:00)

A-11 Canister half - Pass Details

Date: 01 June 2020
Orbit: 1514 x 1686 km, 47.2° (Epoch: 06 July)

Event Time Altitude Azimuth Distance (km) Brightness Sun altitude
Rises 21:52:05 0° 289° (WNW) 4,657 12.7 -13.7°
Reaches altitude 10° 21:56:28 10° 271° (W) 3,673 11.6 -14.2°
Maximum altitude 22:01:50 17° 235° (SW) 3,149 10.7 -14.9°
Drops below altitude 10° 22:07:14 10° 198° (SSW) 3,697 10.7 -15.5°
Enters shadow 22:09:50 - 187° (S) 4,243 10.9 -15.9°
